Tracking 28794 objects as of 19-Apr-2024
HD Live streaming from Space Station
objects crossing your sky now

IRIDIUM 180

Track IRIDIUM 180 now!
10-day predictions
IRIDIUM 180 is classified as:


NORAD ID: 43922
Int'l Code: 2019-002A
Perigee: 783.3 km
Apogee: 786.3 km
Inclination: 86.4 °
Period: 100.4 minutes
Semi major axis: 7155 km
RCS: Unknown
Launch date: January 11, 2019
Source: United States (US)
Launch site: AIR FORCE WESTERN TEST RANGE (AFWTR)
Your satellite tracking list
Your tracking list is empty




NASA's NSSDC Master Catalog

Two Line Element Set (TLE):
1 43922U 19002A   24110.61215482  .00000532  00000-0  18303-3 0  9997
2 43922  86.3954 323.1693 0002134  89.5538 270.5902 14.34220228275964
Source of the keplerian elements: AFSPC